KB9BK Weather Reports


time (UTC)temp
F
wind
direction
speed
knots
gust
knots
rain 1hr
in
rain 24hr
in
rain mn
in
humidity
%
barometer
mb
20260906135635 72 75 2.6 5.2 0.00 0.00 0.00 70 1020.2
20260906134636 72 59 1.7 4.3 0.00 0.00 0.00 71 1020.4
20260906133635 71 68 1.7 4.3 0.00 0.00 0.00 73 1020.2
20260906133116 71 135 1.7 3.5 0.00 0.00 0.00 74 1020.1
20260906131630 71 110 1.7 4.3 0.00 0.00 0.00 76 1020.0
20260906130630 71 149 0.9 3.5 0.00 0.00 0.00 77 1019.8
20260906125630 70 141 0.9 2.6 0.00 0.00 0.00 78 1019.7
20260906124631 69 336 0.9 1.7 0.00 0.00 0.00 82 1019.6
20260906123632 68 47 0.9 1.7 0.00 0.00 0.00 84 1019.5
20260906122630 66 312 0.0 0.9 0.00 0.00 0.00 93 1019.6
20260906121630 65 253 0.9 1.7 0.00 0.00 0.00 94 1019.5
20260906120631 64 311 0.0 1.7 0.00 0.00 0.00 94 1019.3
20260906115631 64 0 0.0 0.9 0.00 0.00 0.00 94 1019.1
20260906114616 64 297 0.9 1.7 0.00 0.00 0.00 93 1019.1
20260906113616 64 257 0.9 0.9 0.00 0.00 0.00 93 1019.0
20260906112617 64 256 0.9 1.7 0.00 0.00 0.00 93 1018.8
20260906111618 64 297 0.9 1.7 0.00 0.00 0.00 93 1018.7
20260906110616 64 242 0.9 1.7 0.00 0.00 0.00 92 1018.6
20260906110057 65 305 0.9 1.7 0.00 0.00 0.00 92 1018.5
20260906105553 65 229 0.9 1.7 0.00 0.00 0.00 92 1018.6
20260906103603 65 308 0.9 2.6 0.00 0.00 0.00 92 1018.7
20260906102605 65 289 0.9 1.7 0.00 0.00 0.00 92 1018.7
20260906101605 65 94 0.9 2.6 0.00 0.00 0.00 92 1018.5
20260906101046 65 335 0.9 1.7 0.00 0.00 0.00 92 1018.5
20260906095606 65 232 0.9 1.7 0.00 0.00 0.00 92 1018.5
20260906094605 65 233 0.9 1.7 0.00 0.00 0.00 91 1018.4
20260906093604 65 0 0.9 2.6 0.00 0.00 0.00 91 1018.3
20260906092603 65 357 1.7 3.5 0.00 0.00 0.00 90 1018.1
20260906091550 65 96 1.7 3.5 0.00 0.00 0.00 90 1017.9
20260906091031 65 331 1.7 2.6 0.00 0.00 0.00 90 1018.3
20260906090030 65 164 0.9 2.6 0.00 0.00 0.00 90 1018.4
20260906084552 65 14 0.9 3.5 0.00 0.00 0.00 91 1018.3
20260906083551 65 107 0.9 2.6 0.00 0.00 0.00 91 1018.1
20260906082552 65 23 0.9 3.5 0.00 0.00 0.00 91 1018.0
20260906081553 65 312 0.9 2.6 0.00 0.00 0.00 91 1018.1
20260906080537 66 301 1.7 3.5 0.00 0.00 0.00 91 1018.1
20260906075536 66 317 1.7 3.5 0.00 0.00 0.00 90 1018.0
20260906074537 66 240 1.7 3.5 0.00 0.00 0.00 90 1017.9
20260906073519 66 0 0.9 2.6 0.00 0.00 0.00 91 1017.9
20260906072519 66 348 0.9 1.7 0.00 0.00 0.00 91 1017.8
20260906071520 66 319 0.9 2.6 0.00 0.00 0.00 91 1017.8
20260906070519 66 251 0.9 2.6 0.00 0.00 0.00 91 1017.8
20260906065519 66 204 0.9 2.6 0.00 0.00 0.00 91 1017.8
20260906064941 66 309 1.7 2.6 0.00 0.00 0.00 91 1018.0
20260906063506 66 259 1.7 3.5 0.00 0.00 0.00 92 1018.0
20260906062505 66 248 0.9 3.5 0.00 0.00 0.00 92 1018.0
20260906061508 65 318 1.7 3.5 0.00 0.00 0.00 93 1017.9
20260906060507 65 313 1.7 3.5 0.00 0.00 0.00 93 1017.9
20260906055508 65 229 1.7 3.5 0.00 0.00 0.00 93 1017.8
20260906054508 65 320 1.7 4.3 0.00 0.00 0.00 93 1017.8
20260906053506 65 7 1.7 3.5 0.00 0.00 0.00 93 1017.8
20260906052453 65 278 1.7 2.6 0.00 0.00 0.00 93 1017.8
20260906051453 66 175 1.7 3.5 0.00 0.00 0.00 92 1017.8
20260906050944 66 315 1.7 3.5 0.00 0.00 0.00 92 1017.6
20260906045454 66 256 1.7 3.5 0.00 0.00 0.00 92 1017.6
20260906044454 66 234 0.9 2.6 0.00 0.00 0.00 92 1017.6
20260906043453 66 309 0.9 2.6 0.00 0.00 0.00 92 1017.3
20260906042455 66 333 0.9 2.6 0.00 0.00 0.00 91 1017.3
20260906041437 67 287 0.9 2.6 0.00 0.00 0.00 90 1017.2
20260906040439 67 15 0.9 2.6 0.00 0.00 0.00 90 1017.1
20260906035425 67 79 1.7 3.5 0.00 0.00 0.00 89 1017.2
20260906034424 67 264 0.9 3.5 0.00 0.00 0.00 88 1017.4
20260906033412 67 4 0.9 1.7 0.00 0.00 0.00 88 1017.3
20260906032411 68 64 1.7 3.5 0.00 0.00 0.00 87 1017.2
20260906031410 68 35 1.7 4.3 0.00 0.00 0.00 87 1017.2
20260906030411 68 44 1.7 3.5 0.00 0.00 0.00 87 1017.3
20260906025406 68 15 1.7 4.3 0.00 0.00 0.00 86 1017.3
20260906024406 68 28 2.6 5.2 0.00 0.00 0.00 86 1017.0
20260906023406 68 62 2.6 6.1 0.00 0.00 0.00 85 1016.9
20260906022407 68 339 1.7 4.3 0.00 0.00 0.00 85 1016.9
20260906021421 68 49 1.7 4.3 0.00 0.00 0.00 85 1016.9
20260906020406 69 68 1.7 3.5 0.00 0.00 0.00 84 1017.0
20260906015407 69 89 1.7 3.5 0.00 0.00 0.00 84 1017.0
20260906014409 69 52 1.7 2.6 0.00 0.00 0.00 84 1017.1
20260906013406 69 89 1.7 4.3 0.00 0.00 0.00 83 1016.9
20260906012406 69 304 1.7 2.6 0.00 0.00 0.00 83 1016.9
20260906011832 70 70 1.7 3.5 0.00 0.00 0.00 83 1016.9
20260906010353 70 47 1.7 3.5 0.00 0.00 0.00 82 1017.0
20260906005349 70 303 1.7 6.1 0.00 0.00 0.00 81 1016.9
20260906004826 70 282 2.6 7.0 0.00 0.00 0.00 81 1016.8
20260906003349 70 277 2.6 7.0 0.00 0.00 0.00 82 1016.8
20260906002349 70 5 2.6 7.0 0.00 0.00 0.00 82 1016.8
20260906001825 70 194 2.6 6.1 0.00 0.00 0.00 83 1016.8
20260906000348 70 99 2.6 6.1 0.00 0.00 0.00 84 1016.8
20260905235341 70 50 2.6 6.1 0.00 0.00 0.00 85 1016.9
20260905234344 70 29 1.7 6.1 0.00 0.00 0.00 85 1016.9
20260905233341 70 64 1.7 7.8 0.00 0.00 0.00 86 1016.9
20260905232342 70 60 2.6 6.1 0.00 0.00 0.00 87 1016.9
20260905231343 70 19 2.6 7.0 0.00 0.00 0.00 88 1016.9
20260905230827 70 73 2.6 6.1 0.00 0.00 0.00 87 1016.9
20260905225342 70 49 2.6 6.1 0.00 0.00 0.00 87 1016.9
20260905224340 70 342 2.6 7.8 0.00 0.00 0.00 86 1017.0
20260905223339 71 68 3.5 7.8 0.00 0.00 0.00 85 1016.8
20260905222340 71 74 1.7 6.1 0.00 0.00 0.00 84 1016.7
20260905221339 71 77 2.6 8.7 0.00 0.00 0.00 84 1016.5
20260905220822 71 39 2.6 6.1 0.00 0.00 0.00 83 1016.4
20260905215822 71 73 2.6 6.1 0.00 0.00 0.00 83 1016.3
20260905214340 71 58 3.5 8.7 0.00 0.00 0.00 83 1016.2
20260905213342 72 75 2.6 7.8 0.00 0.00 0.00 83 1016.2
20260905212337 71 169 3.5 7.8 0.00 0.00 0.00 84 1016.2
20260905212301 72 92 3.5 9.6 0.00 0.00 0.00 84 1016.2
20260905210337 72 35 3.5 7.8 0.00 0.00 0.00 84 1016.0
20260905205339 73 56 3.5 7.8 0.00 0.00 0.00 81 1016.1
20260905204338 74 69 3.5 8.7 0.00 0.00 0.00 81 1016.1
20260905203338 75 92 3.5 8.7 0.00 0.00 0.00 79 1016.0
20260905202338 75 31 3.5 9.6 0.00 0.00 0.00 78 1015.9
20260905202308 74 66 2.6 7.8 0.00 0.00 0.00 80 1016.1
20260905200335 74 84 3.5 7.8 0.00 0.00 0.00 81 1015.9
20260905195335 74 72 4.3 7.8 0.00 0.00 0.00 82 1016.0
20260905194336 74 23 3.5 7.8 0.00 0.00 0.00 82 1016.1
20260905193336 73 56 3.5 7.8 0.00 0.00 0.00 84 1016.0
20260905192337 73 76 4.3 9.6 0.00 0.00 0.00 85 1016.0
20260905191336 74 69 4.3 8.7 0.00 0.00 0.00 83 1016.0
20260905190337 75 69 5.2 9.6 0.00 0.00 0.00 82 1016.0
20260905185817 76 54 5.2 9.6 0.00 0.00 0.00 79 1016.0
20260905184336 77 84 5.2 11.3 0.00 0.00 0.00 80 1015.8
20260905183336 77 29 5.2 10.4 0.00 0.00 0.00 79 1016.0
20260905182334 77 57 3.5 10.4 0.00 0.00 0.00 79 1015.9
20260905181334 76 121 3.5 7.8 0.00 0.00 0.00 80 1015.9
20260905180334 77 103 1.7 6.1 0.00 0.00 0.00 78 1016.0
20260905175333 76 79 3.5 7.0 0.00 0.00 0.00 79 1015.8
20260905174334 77 115 2.6 7.8 0.00 0.00 0.00 77 1015.9
20260905173818 76 75 2.6 6.1 0.00 0.00 0.00 79 1016.0
20260905172332 76 37 2.6 7.8 0.00 0.00 0.00 79 1016.0
20260905171332 76 76 2.6 5.2 0.00 0.00 0.00 80 1016.0
20260905170820 76 113 2.6 6.1 0.00 0.00 0.00 79 1016.0
20260905165329 76 104 2.6 6.1 0.00 0.00 0.00 79 1016.1
20260905164329 76 26 2.6 7.0 0.00 0.00 0.00 80 1016.2
20260905163329 76 74 2.6 8.7 0.00 0.00 0.00 79 1016.1
20260905162813 76 147 1.7 6.1 0.00 0.00 0.00 80 1016.1
20260905161329 76 87 2.6 6.1 0.00 0.00 0.00 79 1016.1
20260905160330 74 202 1.7 4.3 0.00 0.01 0.00 83 1016.2
20260905155314 74 22 1.7 4.3 0.00 0.02 0.00 84 1016.1
20260905154314 74 319 1.7 5.2 0.00 0.05 0.00 84 1016.1
20260905153315 74 269 1.7 5.2 0.00 0.20 0.00 84 1016.0
20260905152314 74 97 1.7 5.2 0.00 0.20 0.00 84 1016.0
20260905152247 74 336 1.7 4.3 0.00 0.20 0.00 83 1015.8
20260905150315 74 33 1.7 4.3 0.00 0.20 0.00 83 1015.7
20260905145314 74 6 1.7 4.3 0.00 0.20 0.00 84 1015.7
20260905144315 74 218 1.7 4.3 0.00 0.20 0.00 86 1015.6
20260905143316 73 57 2.6 7.8 0.00 0.20 0.00 89 1015.3
20260905142316 72 19 1.7 3.5 0.00 0.21 0.00 89 1015.3
20260905141315 72 246 1.7 6.1 0.00 0.21 0.00 90 1015.4